1300060825263,0.724822
1300060885263,0.722964
1300060945263,0.726326
1300061005263,0.733120
1300061065263,0.729336
1300061125263,0.724119
1300061185263,0.725370
1300061245263,0.725360
1300061305263,0.729824
1300061365263,0.723746
1300061425263,0.736883
1300061485263,0.724122
1300061545263,0.727223
1300061605263,0.728770
1300061665263,0.736627
1300061725263,0.727238
1300061785263,0.738265
1300061845263,0.749850
1300061905263,0.771026
1300061965263,0.802757
1300062025263,0.812391
1300062085263,0.812203
1300062145263,0.829653
1300062205263,0.833362
1300062265263,0.840969
1300062325263,0.841722
1300062385263,0.843880
1300062445263,0.841323
1300062505263,0.848987
1300062565263,0.846893
1300062625263,0.852221
1300062685263,0.850142
1300062745263,0.847641
1300062805263,0.834324
1300062865263,0.835509
1300062925263,0.829064
1300062985263,0.830613
1300063045263,0.821741
1300063105263,0.812740
1300063165263,0.808739
1300063225263,0.804198
1300063285263,0.788421
1300063345263,0.787741
1300063405263,0.779443
1300063465263,0.776053
1300063525263,0.768644
1300063585263,0.764886
1300063645263,0.764980
1300063705263,0.758310
1300063765263,0.759737
1300063825263,0.756114
1300063885263,0.747261
1300063945263,0.749127
1300064005263,0.746669
1300064065263,0.739759
1300064125263,0.736242
1300064185263,0.738258
1300064245263,0.752821
1300064305263,0.751041
1300064365263,0.740899
1300064425277,0.734918
1300064485277,0.731245
1300064545277,0.730633
1300064605277,0.733926
1300064665277,0.725936
1300064725277,0.723420
1300064785277,0.728601
1300064845277,0.728189
1300064905277,0.723596
1300064965277,0.724039
1300065025277,0.723337
1300065085277,0.731251
1300065145277,0.724326
1300065205277,0.725339
1300065265277,0.718821
1300065325277,0.724655
1300065385277,0.716280
1300065445277,0.725411
1300065505277,0.721144
1300065565277,0.719692
1300065625277,0.719976
1300065685277,0.716737
1300065745277,0.723723
1300065805277,0.722972
1300065865277,0.724633
1300065925277,0.742124
1300065985277,0.782448
1300066045277,0.718597
1300066105277,0.725755
1300066165277,0.719330
1300066225277,0.720300
1300066285277,0.726433
1300066345277,0.726984
1300066405277,0.722832
1300066465277,0.727955
1300066525277,0.731180
1300066585277,0.726664
1300066645277,0.735947
1300066705277,0.744481
1300066765277,0.747046
1300066825277,0.744349
1300066885277,0.749843
1300066945277,0.741405
1300067005277,0.740178
1300067065277,0.739069
1300067125277,0.743099
1300067185277,0.732496
1300067245277,0.728573
1300067305277,0.734119
1300067365277,0.733253
1300067425277,0.735177
1300067485277,0.727820
1300067545277,0.734286
1300067605277,0.734103
1300067665277,0.733541
1300067725277,0.735323
1300067785277,0.729653
1300067845277,0.735239
1300067905277,0.728296
1300067965277,0.727448
1300068025290,0.730788
1300068085290,0.722065
1300068145290,0.725026
1300068205290,0.734490
1300068265290,0.724403
1300068325290,0.732743
1300068385290,0.730657
1300068445290,0.727669
1300068505290,0.727203
1300068565290,0.722595
1300068625290,0.731468
1300068685290,0.731785
1300068745290,0.727681
1300068805290,0.729090
1300068865290,0.721313
1300068925290,0.726151
1300068985290,0.726209
1300069045290,0.725500
1300069105290,0.726472
1300069165290,0.729526
1300069225290,0.723900
1300069285290,0.716876
1300069345290,0.725912
1300069405290,0.730914
1300069465290,0.724250
1300069525290,0.722661
1300069585290,0.714674
1300069645290,0.721275
1300069705290,0.718224
1300069765290,0.718880
1300069825290,0.728099
1300069885290,0.728425
1300069945290,0.719068
1300070005290,0.716285
1300070065290,0.723270
1300070125290,0.725515
1300070185290,0.720399
1300070245290,0.723265
1300070305290,0.718427
1300070365290,0.718867
1300070425290,0.713858
1300070485290,0.716969
1300070545290,0.718719
1300070605290,0.721545
1300070665290,0.726335
1300070725290,0.722899
1300070785290,0.729166
1300070845290,0.733655
1300070905290,0.731054
1300070965290,0.737564
1300071025290,0.738177
1300071085290,0.723578
1300071145290,0.727185
1300071205290,0.720821
1300071265290,0.730077
1300071325290,0.721551
1300071385290,0.728262
1300071445290,0.723828
1300071505290,0.723458
1300071565290,0.725564
1300071625303,0.718847
1300071685303,0.723458
1300071745303,0.724980
1300071805303,0.723167
1300071865303,0.725440
1300071925303,0.721019
1300071985303,0.725506
1300072045303,0.753644
1300072105303,0.719208
1300072165303,0.728438
1300072225303,0.722593
1300072285303,0.722158
1300072345303,0.720332
1300072405303,0.716102
1300072465303,0.716994
1300072525303,0.717555
1300072585303,0.714570
1300072645303,0.715788
1300072705303,0.716009
1300072765303,0.719469
1300072825303,0.713587
1300072885303,0.723993
1300072945303,0.719775
1300073005303,0.719185
1300073065303,0.712374
1300073125303,0.722046
1300073185303,0.721497
1300073245303,0.720372
1300073305303,0.715916
1300073365303,0.716784
1300073425303,0.715183
1300073485303,0.711874
1300073545303,0.716599
1300073605303,0.717096
1300073665303,0.720288
1300073725303,0.712581
1300073785303,0.718185
1300073845303,0.725579
1300073905303,0.718346
1300073965303,0.719811
1300074025303,0.718785
1300074085303,0.727161
1300074145303,0.716344
1300074205303,0.714786
1300074265303,0.716268
1300074325303,0.719692
1300074385303,0.732208
1300074445303,0.723990
1300074505303,0.727302
1300074565303,0.726204
1300074625303,0.728473
1300074685303,0.733098
1300074745303,0.737165
1300074805303,0.737497
1300074865303,0.734468
1300074925303,0.730201
1300074985303,0.734616
1300075045303,0.725773
1300075105303,0.733451
1300075165303,0.727413
1300075225317,0.726302
1300075285317,0.724814
1300075345317,0.730717
1300075405317,0.719333
1300075465317,0.725358
1300075525317,0.723350
1300075585317,0.723996
1300075645317,0.721134
1300075705317,0.721394
1300075765317,0.717098
1300075825317,0.721310
1300075885317,0.718575
1300075945317,0.728640
1300076005317,0.723223
1300076065317,0.732196
1300076125317,0.722702
1300076185317,0.726499
1300076245317,0.718717
1300076305317,0.727342
1300076365317,0.725834
1300076425317,0.722744
1300076485317,0.724932
1300076545317,0.719275
1300076605317,0.720010
1300076665317,0.717024
1300076725317,0.721889
1300076785317,0.719412
1300076845317,0.723828
1300076905317,0.721542
1300076965317,0.723111
1300077025317,0.726799
1300077085317,0.717450
1300077145317,0.725604
1300077205317,0.725320
1300077265317,0.721583
1300077325317,0.733450
1300077385317,0.730187
1300077445317,0.732972
1300077505317,0.731557
1300077565317,0.725518
1300077625317,0.727577
1300077685317,0.723405
1300077745317,0.729737
1300077805317,0.716094
1300077865317,0.715895
1300077925317,0.720763
1300077985317,0.722490
1300078045317,0.722722
1300078105317,0.720878
1300078165317,0.718675
1300078225317,0.721949
1300078285317,0.727908
1300078345317,0.724517
1300078405317,0.724480
1300078465317,0.727154
1300078525317,0.718883
1300078585317,0.717394
1300078645317,0.718145
1300078705317,0.721738
1300078765317,0.720954
1300078825330,0.716668
1300078885330,0.717186
1300078945330,0.715338
1300079005330,0.716618
1300079065330,0.717145
1300079125330,0.724962
1300079185330,0.720245
1300079245330,0.734541
1300079305330,0.737548
1300079365330,0.749022
1300079425330,0.737030
1300079485330,0.738997
1300079545330,0.736558
1300079605330,0.734685
1300079665330,0.734618
1300079725330,0.736322
1300079785330,0.731809
1300079845330,0.729815
1300079905330,0.728541
1300079965330,0.733953
1300080025330,0.730905
1300080085330,0.741377
1300080145330,0.738455
1300080205330,0.735459
1300080265330,0.721372
1300080325330,0.723556
1300080385330,0.727915
1300080445330,0.729142
1300080505330,0.719012
1300080565330,0.722266
1300080625330,0.712956
1300080685330,0.719837
1300080745330,0.714529
1300080805330,0.714235
1300080865330,0.715370
1300080925330,0.718661
1300080985330,0.721455
1300081045330,0.713006
1300081105330,0.713359
1300081165330,0.710126
1300081225330,0.717022
1300081285330,0.719208
1300081345330,0.706931
1300081405330,0.710739
1300081465330,0.721210
1300081525330,0.714708
1300081585330,0.714034
1300081645330,0.715435
1300081705330,0.712950
1300081765330,0.717284
1300081825330,0.713508
1300081885330,0.716669
1300081945330,0.714139
1300082005330,0.714943
1300082065330,0.719956
1300082125330,0.714404
1300082185330,0.713443
1300082245330,0.713685
1300082305330,0.713308
1300082365330,0.713087
1300082425334,0.715697
1300082485334,0.716500
1300082545334,0.714844
1300082605334,0.712364
1300082665334,0.716490
1300082725334,0.713840
1300082785334,0.723527
1300082845334,0.713654
1300082905334,0.717201
1300082965334,0.716347
1300083025334,0.712045
1300083085334,0.709407
1300083145334,0.721412
1300083205334,0.715096
1300083265334,0.710435
1300083325334,0.710200
1300083385334,0.705437
1300083445334,0.707590
1300083505334,0.720825
1300083565334,0.717557
1300083625334,0.717568
1300083685334,0.719584
1300083745334,0.723326
1300083805334,0.727730
1300083865334,0.734268
1300083925334,0.735469
1300083985334,0.727367
1300084045334,0.730341
1300084105334,0.732803
1300084165334,0.726959
1300084225334,0.729531
1300084285334,0.732380
1300084345334,0.721845
1300084405334,0.724939
1300084465334,0.724750
1300084525334,0.720543
1300084585334,0.715754
1300084645334,0.722864
1300084705334,0.719615
1300084765334,0.713558
1300096765373,0.708980
1300096825386,0.713065
1300096885386,0.719400
1300096945386,0.723739
1300097005386,0.723547
1300097065386,0.717148
1300097125386,0.725384
1300097185386,0.723408
1300097245386,0.725138
1300097305386,0.720784
1300097365386,0.719402
1300097425386,0.717427
1300097485386,0.714448
1300097545386,0.711357
1300097605386,0.714041
1300097665386,0.714461
1300097725386,0.710795
1300097785386,0.710075
1300097845386,0.716006
1300097905386,0.714004
1300097965386,0.712260
1300098025386,0.709112
1300098085386,0.707978
1300098145386,0.715030
1300098205386,0.714063
1300098265386,0.704049
1300098325386,0.702264
1300098385386,0.713673
1300098445386,0.705006
1300098505386,0.710513
1300098565386,0.713234
1300098625386,0.714852
1300098685386,0.706823
1300098745386,0.709595
1300098805386,0.703321
1300098865386,0.706760
1300098925386,0.704026
1300098985386,0.716305
1300099045386,0.704515
1300099105386,0.711675
1300099165386,0.714636
1300099225386,0.716457
1300099285386,0.724662
1300099345386,0.732108
1300099405386,0.725763
1300099465386,0.729520
1300099525386,0.732296
1300099585386,0.732955
1300099645386,0.726313
1300099705386,0.732523
1300099765386,0.729077
1300099825386,0.731916
1300099885386,0.724493
1300099945386,0.726248
1300100005386,0.721577
1300100065386,0.721321
1300100125386,0.719066
1300100185386,0.718802
1300100245386,0.722737
1300100305386,0.722459
1300100365386,0.716799
1300100425399,0.713291
1300100485399,0.717040
1300100545399,0.717715
1300100605399,0.719725
1300100665399,0.719790
1300100725399,0.714559
1300100785399,0.719580
1300100845399,0.711354
1300100905399,0.712443
1300100965399,0.718319
1300101025399,0.721948
1300101085399,0.713625
1300101145399,0.711309
1300101205399,0.720571
1300101265399,0.709322
1300101325399,0.717931
1300101385399,0.715965
1300101445399,0.713900
1300101505399,0.707873
1300101565399,0.710957
1300101625399,0.715808
1300101685399,0.716755
1300101745399,0.709723
1300101805399,0.712372
1300101865399,0.716233
1300101925399,0.719050
1300101985399,0.720099
1300102045399,0.720771
1300102105399,0.720538
1300102165399,0.720586
1300102225399,0.738456
1300102285399,0.726523
1300102345399,0.730776
1300102405399,0.729369
1300102465399,0.732572
1300102525399,0.727210
1300102585399,0.720217
1300102645399,0.729113
1300102705399,0.721728
1300102765399,0.720260
1300102825399,0.713534
1300102885399,0.719340
1300102945399,0.716283
1300103005399,0.718715
1300103065399,0.720378
1300103125399,0.715013
1300103185399,0.715826
1300103245399,0.708602
1300103305399,0.712887
1300103365399,0.722071
1300103425399,0.710835
1300103485399,0.715627
1300103545399,0.711167
1300103605399,0.715602
1300103665399,0.711927
1300103725399,0.710377
1300103785399,0.713385
1300103845399,0.712373
1300103905399,0.712243
1300103965399,0.722987
1300104025412,0.716772
1300104085412,0.708598
1300104145412,0.711423
1300104205412,0.713160
1300104265412,0.720053
1300104325412,0.713634
1300104385412,0.712062
1300104445412,0.716102
1300104505412,0.711699
1300104565412,0.707741
1300104625412,0.711583
1300104685412,0.717279
1300104745412,0.718584
1300104805412,0.707964
1300104865412,0.710301
1300104925412,0.712321
1300104985412,0.709512
1300105045412,0.711390
1300105105412,0.717619
1300105165412,0.710626
1300105225412,0.722738
1300105285412,0.724593
1300105345412,0.726271
1300105405412,0.721962
1300105465412,0.722294
1300105525412,0.719812
1300105585412,0.720139
1300105645412,0.717460
1300105705412,0.719429
1300105765412,0.717313
1300105825412,0.711706
1300105885412,0.710325
1300105945412,0.721349
1300106005412,0.716219
1300106065412,0.724047
1300106125412,0.718277
1300106185412,0.711865
1300106245412,0.715483
1300106305412,0.713660
1300106365412,0.706935
1300106425412,0.705734
1300106485412,0.709031
1300106545412,0.715568
1300106605412,0.709196
1300106665412,0.721430
1300106725412,0.720941
1300106785412,0.718102
1300106845412,0.711789
1300106905412,0.718661
1300106965412,0.717178
1300107025412,0.716071
1300107085412,0.713130
1300107145412,0.713710
1300107205412,0.711174
1300107265412,0.716607
1300107325412,0.714624
1300107385412,0.716051
1300107445412,0.716740
1300107505412,0.711532
1300107565412,0.718207
1300107625426,0.721020
1300107685426,0.716228
1300107745426,0.716467
1300107805426,0.713560
1300107865426,0.717421
1300107925426,0.714487
1300107985426,0.716823
1300108045426,0.714536
1300108105426,0.710259
1300108165426,0.713906
1300108225426,0.713260
1300108285426,0.716963
1300108825426,0.717296
1300108885426,0.716526
1300108945426,0.715687
1300109005426,0.716734
1300109065426,0.715996
1300109125426,0.718057
1300109185426,0.716989
1300109245426,0.714373
1300109305426,0.720502
1300109365426,0.719729
1300109425426,0.720399
1300109485426,0.723385
1300109545426,0.720148
1300109605426,0.723070
1300109665426,0.721998
1300109725426,0.726585
1300109785426,0.731840
1300109845426,0.735674
1300109905426,0.730959
1300109965426,0.733773
1300110025426,0.730913
1300110085426,0.740150
1300110145426,0.742147
1300110205426,0.743659
1300110265426,0.740000
1300110325426,0.740970
1300110385426,0.737836
1300110445426,0.741997
1300110505426,0.743072
1300110565426,0.737225
1300110625426,0.731691
1300110685426,0.728557
1300110745426,0.732134
1300110805426,0.729324
1300110865426,0.729161
1300110925426,0.720942
1300110985426,0.724400
1300111045426,0.720210
1300111105426,0.724619
1300111165426,0.721835
1300111225439,0.720330
1300111285439,0.718007
1300111345439,0.715128
1300111405439,0.715387
1300111465439,0.714813
1300111525439,0.719229
1300111585439,0.709148
1300111645439,0.715536
1300111705439,0.713853
1300111765439,0.712775
1300111825439,0.712340
1300111885439,0.711261
1300111945439,0.706028
1300112005439,0.715061
1300112065439,0.706625
1300112125439,0.704754
1300112185439,0.713084
1300112245439,0.712318
1300112305439,0.712801
1300112365439,0.710107
1300112425439,0.717122
1300112485439,0.701772
1300112545439,0.710247
1300112605439,0.707758
1300112665439,0.712173
1300112725439,0.700007
1300112785439,0.719971
1300112845439,0.716824
1300112905439,0.715517
1300112965439,0.719725
1300113025439,0.712188
1300113085439,0.723219
1300113145439,0.718246
1300113205439,0.712711
1300113265439,0.717451
1300113325439,0.714267
1300113385439,0.717835
1300113445439,0.717283
1300113505439,0.708948
1300113565439,0.711546
1300113625439,0.717120
1300113685439,0.716959
1300113745439,0.715393
1300113805439,0.711800
1300113865439,0.715752
1300113925439,0.715750
1300113985439,0.710235
1300114045439,0.707714
1300114105439,0.717051
1300114165439,0.708690
1300114225439,0.714613
1300114285439,0.711703
1300114345439,0.718617
1300114405439,0.712116
1300114465439,0.709634
1300114525439,0.713427
1300114585439,0.711644
1300114645439,0.713558
1300114705439,0.718399
1300114765439,0.717085
1300114825452,0.720547
1300114885452,0.707475
1300114945452,0.712554
1300115005452,0.717183
1300115065452,0.719033
1300115125452,0.713707
1300115185452,0.699937
1300115245452,0.702168
1300115305452,0.709419
1300115365452,0.707903
1300115425452,0.712901
1300115485452,0.711214
1300115545452,0.708113
1300115605452,0.719906
1300115665452,0.707223
1300115725452,0.710759
1300115785452,0.709904
1300115845452,0.704033
1300115905452,0.706693
1300115965452,0.704474
1300116025452,0.703447
1300116085452,0.708032
1300116145452,0.701215
1300116205452,0.710075
1300116265452,0.707940
1300116325452,0.708415
1300116385452,0.708655
1300116445452,0.708831
1300116505452,0.713276
1300116565452,0.712843
1300116625452,0.703667
1300116685452,0.715632
1300116745452,0.705978
1300116805452,0.703853
1300116865452,0.709564
1300116925452,0.709533
1300116985452,0.701081
1300117045452,0.708384
1300117105452,0.706858
1300117165452,0.710905
1300117225452,0.704510
1300117285452,0.713414
1300117345452,0.705232
1300117405452,0.700325
1300117465452,0.709603
1300117525452,0.711804
1300117585452,0.703526
1300117645452,0.712634
1300117705452,0.707496
1300117765452,0.705612
1300117825452,0.701505
1300117885452,0.708165
1300117945452,0.709683
1300118005452,0.696549
1300118065452,0.701980
1300118125452,0.712322
1300118185452,0.709462
1300118245452,0.707925
1300118305452,0.714644
1300118365452,0.704812
1300118425465,0.705803
1300118485465,0.705098
1300118545465,0.717659
1300118605465,0.708749
1300118665465,0.716974
1300118725465,0.718573
1300118785465,0.734894
1300118845465,0.737409
1300118905465,0.757691
1300118965465,0.782722
1300119025465,0.774733
1300119085465,0.788197
1300119145465,0.791298
1300119205465,0.794281
1300119265465,0.799541
1300119325465,0.803528
1300119385465,0.796819
1300119445465,0.792925
1300119505465,0.798979
1300119565465,0.785370
1300119625465,0.782750
1300119685465,0.783841
1300119745465,0.770248
1300119805465,0.769848
1300119865465,0.770560
1300119925465,0.760604
1300119985465,0.754542
1300120045465,0.749313
1300120105465,0.752693
1300120165465,0.743195
1300120225465,0.746608
1300120285465,0.746354
1300120345465,0.743026
1300120405465,0.733521
1300120465465,0.735878
1300120525465,0.731737
1300120585465,0.725254
1300120645465,0.733334
1300120705465,0.730360
1300120765465,0.723087
1300120825465,0.728102
1300120885465,0.724485
1300120945465,0.724968
1300121005465,0.717642
1300121065465,0.717844
1300121125465,0.716985
1300121185465,0.716899
1300121245465,0.712812
1300121305465,0.716998
1300121365465,0.720553
1300121425465,0.714407
1300121485465,0.713853
1300121545465,0.707855
1300121605465,0.718022
1300121665465,0.707497
1300121725465,0.708464
1300121785465,0.709198
1300121845465,0.714865
1300121905465,0.710338
1300121965465,0.706554
1300122025478,0.710005
1300122085478,0.704674
1300122145478,0.700345
1300122205478,0.698881
1300122265478,0.705640
1300122325478,0.700588
1300122385478,0.702055
1300122445478,0.705193
1300122505478,0.706769
1300122565478,0.704320
1300122625478,0.701490
1300122685478,0.710151
1300122745478,0.705156
1300122805478,0.715276
1300122865478,0.704626
1300122925478,0.707862
1300122985478,0.706709
1300123045478,0.706917
1300123105478,0.711357
1300123165478,0.707432
1300123225478,0.709512
1300123285478,0.712649
1300123345478,0.705674
1300123405478,0.705491
1300123465478,0.705263
1300123525478,0.703688
1300123585478,0.706703
1300123645478,0.707046
1300123705478,0.702803
1300123765478,0.708204
1300123825478,0.703006
1300123885478,0.705488
1300123945478,0.707003
1300124005478,0.708078
1300124065478,0.706317
1300124125478,0.707539
1300124185478,0.709694
1300124245478,0.704226
1300124305478,0.703664
1300124365478,0.708497
1300124425478,0.701021
1300124485478,0.699794
1300124545478,0.707041
1300124605478,0.699942
1300124665478,0.702124
1300124725478,0.701536
1300124785478,0.708780
1300124845478,0.707063
1300124905478,0.711231
1300124965478,0.710337
1300125025478,0.708761
1300125085478,0.707896
1300125145478,0.706128
1300125205478,0.713410
1300125265478,0.704338
1300125325478,0.713817
1300125385478,0.709788
1300125445478,0.704284
1300125505478,0.705107
1300125565478,0.708031
1300125625490,0.707195
1300125685490,0.710117
1300125745490,0.706489
1300125805490,0.700422
1300125865490,0.708475
1300125925490,0.705639
1300125985490,0.712286
1300126045490,0.702066
1300126105490,0.705345
1300126165490,0.707443
1300126225490,0.706737
1300126285490,0.706161
1300126345490,0.712161
1300126405490,0.706639
1300126465490,0.702471
1300126525490,0.707300
1300126585490,0.706771
1300126645490,0.703998
1300126705490,0.706851
1300126765490,0.708659
1300126825490,0.699900
1300126885490,0.708387
1300126945490,0.701136
1300127005490,0.710402
1300127065490,0.704985
1300127125490,0.704240
1300127185490,0.708191
1300127245490,0.707884
1300127305490,0.702445
1300127365490,0.711996
1300127425490,0.708872
1300127485490,0.701892
1300127545490,0.699327
1300127605490,0.708526
1300127665490,0.705341
1300127725490,0.709312
1300127785490,0.709926
1300127845490,0.710237
1300127905490,0.708700
1300127965490,0.706512
1300128025490,0.710334
1300128085490,0.711491
1300128145490,0.710333
1300128205490,0.711668
1300128265490,0.711866
1300128325490,0.717542
1300128385490,0.725492
1300128445490,0.720961
1300128505490,0.731046
1300128565490,0.738781
1300128625490,0.726486
1300128685490,0.730184
1300128745490,0.731418
1300128805490,0.737069
1300128865490,0.732503
1300128925490,0.727791
1300128985490,0.727165
1300129045490,0.718884
1300129105490,0.725995
1300129165490,0.720844
1300129225489,0.731550
1300129285489,0.720218
1300129345489,0.725031
1300129405489,0.720574
1300129465489,0.723226
1300129525489,0.717223
1300129585489,0.716352
1300129645489,0.712587
1300129705489,0.716476
1300129765489,0.706805
1300129825489,0.713970
1300129885489,0.715390
1300129945489,0.704581
1300130005489,0.712269
1300130065489,0.715387
1300130125489,0.716571
1300130185489,0.721692
1300130245489,0.725891
1300130305489,0.723127
1300130365489,0.720563
1300130425489,0.717102
1300130485489,0.731130
1300130545489,0.731990
1300130605489,0.713450
1300130665489,0.718940
1300130725489,0.715023
1300130785489,0.717078
1300130845489,0.713805
1300130905489,0.716616
1300130965489,0.714662
1300131025489,0.714552
1300131085489,0.709631
1300131145489,0.710338
1300131205489,0.711875
1300131265489,0.721077
1300131325489,0.728408
1300131385489,0.743925
1300131445489,0.756828
1300131505489,0.765944
1300131565489,0.778080
1300131625489,0.786343
1300131685489,0.788976
1300131745489,0.799495
1300131805489,0.804637
1300131865489,0.804744
1300131925489,0.803962
1300131985489,0.801061
1300132045489,0.807721
1300132105489,0.813431
1300132165489,0.839197
1300132225489,0.855939
1300132285489,0.968673
1300132345489,1.09648
1300132405489,1.24299
1300132465489,1.18236
1300132525489,1.05969
1300132585489,0.969682
1300132645489,0.938454
1300132705489,0.903071
1300132765489,0.897229
1300132825501,0.883892
1300132885501,0.868061
1300132945501,0.859771
1300133005501,0.859436
1300133065501,0.853182
1300133125501,0.855406
1300133185501,0.863777
1300133245501,0.849114
1300133305501,0.860022
1300133365501,0.858583
1300133425501,0.859242
1300133485501,0.856720
1300133545501,0.857622
1300133605501,0.847870
1300133665501,0.845242
1300133725501,0.850513
1300133785501,0.844198
1300133845501,0.838762
1300133905501,0.832919
1300133965501,0.830654
1300134025501,0.825072
1300134085501,0.823695
1300134145501,0.822462
1300134205501,0.823175
1300134265501,0.823298
1300134325501,0.829349
1300134385501,0.830000
1300134445501,0.834133
1300134505501,0.825993
1300134565501,0.820355
1300134625501,0.819491
1300134685501,0.821548
1300134745501,0.806228
1300134805501,0.808336
1300134865501,0.809732
1300134925501,0.792515
1300134985501,0.789575
1300135045501,0.789362
1300135105501,0.788557
1300135165501,0.782408
1300135225501,0.774971
1300135285501,0.778235
1300135345501,0.784164
1300135405501,0.778992
1300135465501,0.776307
1300135525501,0.778184
1300135585501,0.773367
1300135645501,0.770449
1300135705501,0.770892
1300135765501,0.765829